Regional Weather Roundup
Issued by NWS Sioux Falls, SD

Home | Current Version | Previous Version | Text Only | Print | Product List | Glossary On
Versions: 1 2 3 4 5 6 7 8 9 10 11 12 13 14 15 16 17 18 19 20 21 22 23 24 25 26 27 28 29 30 31 32 33 34 35 36 37 38 39 40 41 42 43 44 45 46 47 48 49 50
000
ASUS43 KFSD 260402
RWRFSD

WEATHER ROUNDUP FOR SE SOUTH DAKOTA/SW MINNESOTA/NW IOWA
NATIONAL WEATHER SERVICE SIOUX FALLS SD
1100 PM CDT FRI JUL 25 2014

NOTE: "FAIR" INDICATES FEW OR NO CLOUDS BELOW 12,000 FEET WITH NO
SIGNIFICANT WEATHER AND OR OBSTRUCTIONS TO VISIBILITY.


SDZ038>040-050-052>070-260500-
SOUTHEAST SOUTH DAKOTA

CITY           SKY/WX    TMP DP  RH WIND       PRES   REMARKS
CHAMBERLAIN    PTCLDY    71  66  85 CALM      29.86S
HURON          CLEAR     67  65  93 NE5       29.82F
MADISON        FAIR      66  66 100 N5        29.86S
MITCHELL       PTCLDY    70  67  90 N5        29.83S
SIOUX FALLS    MOCLDY    75  70  84 N7        29.84R
WINNER         FAIR      76  68  76 E10       29.86R
YANKTON        PTCLDY    73  72  94 NW6       29.82R
$$

MNZ071-072-080-081-089-090-097-098-260500-
SOUTHWEST MINNESOTA

CITY           SKY/WX    TMP DP  RH WIND       PRES   REMARKS
FAIRMONT       CLOUDY    72  63  73 S5        29.82S
JACKSON        MOCLDY    72  68  88 S5        29.84S
LUVERNE        PTCLDY    73  70  88 CALM      29.84R
MARSHALL       MOCLDY    73  70  88 NW6       29.82R
MONTEVIDEO     CLEAR     72  66  83 NW3       29.83R
PIPESTONE      CLOUDY    75  72  88 CALM      29.86R
REDWOOD FALLS  CLOUDY    77  72  84 NW7       29.80R
TRACY          MOCLDY    74  71  91 NW5       29.84R
WINDOM         MOCLDY    73  70  88 CALM      29.84R
WORTHINGTON    CLEAR     73  70  88 SW6       29.86R
$$

IAZ001>003-012>014-020>022-031-032-NEZ013-014-SDZ071-260500-
NORTHWEST IOWA

CITY           SKY/WX    TMP DP  RH WIND       PRES   REMARKS
CHEROKEE       CLOUDY    75  73  92 CALM      29.83S
DENISON        CLOUDY    75  75 100 E6        29.80R
ESTHERVILLE    PTCLDY    71  69  93 S3        29.83R
LE MARS        MOCLDY    75  72  88 NW5       29.83R
ORANGE CITY    CLOUDY    77  72  83 CALM      29.84R
SHELDON        MOCLDY    70  70 100 CALM      29.83R
SIOUX CITY     MOCLDY    78  73  84 E5        29.80S
SPENCER        PTCLDY    73  69  87 S5        29.83R
STORM LAKE     CLOUDY    73  73 100 CALM      29.85R
$$

ABBREVIATIONS USED IN REMARKS
   TC - TEMPERATURE IN CELSIUS
  WCI - WIND CHILL INDEX
   HX - HEAT INDEX
  VSB - VISIBILITY




USA.gov is the U.S. government's official web portal to all federal, state and local government web resources and services.